RAM983 LPPT-GMMN

Flight info

Callsign RAM983
Flight time N/A
Altitude 35000
Route DUZO1X DUZOP AMSEL UR722 LAKAM LAKA3A
Aircraft B738/M-SDE3FGHIRWY/L

Departure

Time 2026-05-07 19:26
Airport Lisbon Humberto Delgado Airport (LPPT)

Arrival

Time N/A
Airport Mohammed V International Airport (GMMN)
Time Latitude Longitude Altitude Speed Heading
2026-05-07 18:45 38.77298 -9.13154 380 ft 0 kts 78°
2026-05-07 19:12 38.77296 -9.13167 380 ft 2 kts 78°
2026-05-07 19:12 38.77293 -9.13185 380 ft 2 kts 78°
2026-05-07 19:13 38.77291 -9.13198 380 ft 0 kts 78°
2026-05-07 19:13 38.77286 -9.13215 380 ft 2 kts 54°
2026-05-07 19:13 38.77276 -9.13229 380 ft 2 kts 32°
2026-05-07 19:13 38.77262 -9.13236 380 ft 2 kts
2026-05-07 19:14 38.77250 -9.13237 380 ft 0 kts 351°
2026-05-07 19:14 38.77244 -9.13235 380 ft 0 kts 348°
2026-05-07 19:17 38.77254 -9.13237 380 ft 5 kts 348°
2026-05-07 19:17 38.77288 -9.13246 380 ft 4 kts 348°
2026-05-07 19:17 38.77304 -9.13252 380 ft 0 kts 340°
2026-05-07 19:18 38.77320 -9.13274 380 ft 7 kts 295°
2026-05-07 19:18 38.77319 -9.13355 380 ft 13 kts 256°
2026-05-07 19:18 38.77300 -9.13469 380 ft 0 kts 258°
2026-05-07 19:18 38.77295 -9.13500 380 ft 7 kts 258°
2026-05-07 19:19 38.77278 -9.13607 380 ft 17 kts 258°
2026-05-07 19:19 38.77253 -9.13765 380 ft 24 kts 259°
2026-05-07 19:19 38.77171 -9.13877 380 ft 18 kts 204°
2026-05-07 19:19 38.77037 -9.13950 380 ft 22 kts 202°
2026-05-07 19:20 38.76906 -9.14020 380 ft 21 kts 203°
2026-05-07 19:20 38.76815 -9.14068 380 ft 14 kts 202°
2026-05-07 19:20 38.76731 -9.14114 380 ft 13 kts 203°
2026-05-07 19:20 38.76660 -9.14152 380 ft 12 kts 202°
2026-05-07 19:21 38.76634 -9.14166 380 ft 0 kts 202°
2026-05-07 19:21 38.76622 -9.14172 380 ft 4 kts 202°
2026-05-07 19:22 38.76603 -9.14184 381 ft 0 kts 227°
2026-05-07 19:22 38.76603 -9.14185 381 ft 1 kts 229°
2026-05-07 19:22 38.76595 -9.14233 381 ft 13 kts 276°
2026-05-07 19:23 38.76599 -9.14258 381 ft 0 kts 294°
2026-05-07 19:23 38.76603 -9.14268 381 ft 0 kts 294°
2026-05-07 19:25 38.76606 -9.14277 381 ft 6 kts 294°
2026-05-07 19:25 38.76659 -9.14369 382 ft 23 kts 348°
2026-05-07 19:25 38.76828 -9.14292 382 ft 42 kts 22°
2026-05-07 19:26 38.77295 -9.14041 382 ft 117 kts 21°
2026-05-07 19:26 38.78130 -9.13594 388 ft 177 kts 21°
2026-05-07 19:26 38.79503 -9.12841 1019 ft 204 kts 20°
2026-05-07 19:26 38.80503 -9.12281 1667 ft 217 kts 21°
2026-05-07 19:27 38.82984 -9.10755 2689 ft 254 kts 27°
2026-05-07 19:27 38.84607 -9.09520 3451 ft 264 kts 31°
2026-05-07 19:28 38.86737 -9.07091 4468 ft 275 kts 58°
2026-05-07 19:28 38.87528 -9.04779 5173 ft 275 kts 79°
2026-05-07 19:28 38.87592 -9.01568 6068 ft 270 kts 106°
2026-05-07 19:28 38.86951 -8.99450 6720 ft 263 kts 122°
2026-05-07 19:29 38.85994 -8.97699 6972 ft 263 kts 138°
2026-05-07 19:29 38.84876 -8.96631 6999 ft 259 kts 153°
2026-05-07 19:30 38.77807 -8.97415 8374 ft 268 kts 219°
2026-05-07 19:30 38.75945 -8.99702 9430 ft 274 kts 218°
2026-05-07 19:31 38.72245 -9.02405 9916 ft 273 kts 200°
2026-05-07 19:31 38.70515 -9.03247 9915 ft 271 kts 199°
2026-05-07 19:31 38.68764 -9.04108 9916 ft 273 kts 200°
2026-05-07 19:31 38.67012 -9.05008 10062 ft 271 kts 201°
2026-05-07 19:32 38.65279 -9.05926 10895 ft 269 kts 201°
2026-05-07 19:32 38.63518 -9.06865 11257 ft 288 kts 201°
2026-05-07 19:32 38.61618 -9.07877 11766 ft 301 kts 201°
2026-05-07 19:32 38.59665 -9.08918 12241 ft 315 kts 201°
2026-05-07 19:33 38.57600 -9.10018 12782 ft 326 kts 201°
2026-05-07 19:33 38.55483 -9.11147 13525 ft 330 kts 202°
2026-05-07 19:33 38.53377 -9.12269 14258 ft 334 kts 202°
2026-05-07 19:33 38.51231 -9.13412 14998 ft 337 kts 202°
2026-05-07 19:34 38.49078 -9.14558 15736 ft 339 kts 202°
2026-05-07 19:34 38.46899 -9.15695 16469 ft 341 kts 200°
2026-05-07 19:34 38.44614 -9.16561 17206 ft 342 kts 191°
2026-05-07 19:34 38.42265 -9.16649 17941 ft 345 kts 175°
2026-05-07 19:35 38.39927 -9.15889 18682 ft 348 kts 161°
2026-05-07 19:35 38.37765 -9.14510 19412 ft 350 kts 153°
2026-05-07 19:35 38.35732 -9.12871 20137 ft 350 kts 150°
2026-05-07 19:35 38.33840 -9.11218 20812 ft 348 kts 149°
2026-05-07 19:36 38.31851 -9.09436 21531 ft 345 kts 149°
2026-05-07 19:36 38.29913 -9.07696 22229 ft 341 kts 150°
2026-05-07 19:36 38.28006 -9.05993 22920 ft 335 kts 150°
2026-05-07 19:36 38.26093 -9.04295 23663 ft 328 kts 151°
2026-05-07 19:37 38.24250 -9.02670 24422 ft 320 kts 152°
2026-05-07 19:37 38.22438 -9.01078 25197 ft 311 kts 152°
2026-05-07 19:37 38.20710 -8.99562 25967 ft 300 kts 152°
2026-05-07 19:37 38.19024 -8.98083 26647 ft 291 kts 152°
2026-05-07 19:38 38.17321 -8.96608 26700 ft 303 kts 153°
2026-05-07 19:38 38.15564 -8.95096 26816 ft 313 kts 152°
2026-05-07 19:38 38.13728 -8.93513 26872 ft 325 kts 152°
2026-05-07 19:38 38.11800 -8.91845 26953 ft 336 kts 152°
2026-05-07 19:39 38.09827 -8.90134 27004 ft 349 kts 152°
2026-05-07 19:39 38.07793 -8.88421 27068 ft 358 kts 154°
2026-05-07 19:39 38.05559 -8.86842 27128 ft 367 kts 159°
2026-05-07 19:39 38.03237 -8.85447 27212 ft 376 kts 161°
2026-05-07 19:40 38.00803 -8.84087 27260 ft 387 kts 161°
2026-05-07 19:40 37.98260 -8.82695 27340 ft 398 kts 161°
2026-05-07 19:40 37.95683 -8.81283 27398 ft 410 kts 161°
2026-05-07 19:40 37.93036 -8.79824 27480 ft 421 kts 161°
2026-05-07 19:41 37.90310 -8.78310 27557 ft 432 kts 161°
2026-05-07 19:41 37.87514 -8.76749 27768 ft 440 kts 160°
2026-05-07 19:41 37.84709 -8.75173 28291 ft 440 kts 160°
2026-05-07 19:41 37.81906 -8.73589 28892 ft 438 kts 161°
2026-05-07 19:42 37.79122 -8.72016 29512 ft 435 kts 161°
2026-05-07 19:42 37.76355 -8.70451 30134 ft 433 kts 161°
2026-05-07 19:42 37.73591 -8.68890 30758 ft 429 kts 161°
2026-05-07 19:42 37.70865 -8.67352 31399 ft 424 kts 162°
2026-05-07 19:43 37.68171 -8.65836 31972 ft 421 kts 162°
2026-05-07 19:43 37.67298 -8.65346 32133 ft 421 kts 162°